Preview of NWS' New Version of Forecast
This preview is not operational and should not be used for support decisions.

Regional Weather Roundup (RWR)

Issued by National Weather Service (NWS)

                            
000
ASUS46 KSEW 161610
RWRWA 

WASHINGTON REGIONAL WEATHER ROUNDUP
NATIONAL WEATHER SERVICE SEATTLE WA
900 AM PDT MON SEP 16 2019

NOTE:"FAIR" INDICATES FEW OR NO CLOUDS BELOW 12,000 FEET WITH NO 
SIGNIFICANT WEATHER AND/OR OBSTRUCTIONS TO VISIBILITY.

WAZ507-509-555>559-161700-
SEATTLE, TACOMA, EVERETT, AND VICINITY
  
CITY           SKY/WX    TMP DP  RH WIND       PRES   REMARKS
EVERETT        CLOUDY    55  53  93 S6        29.83R                  
BOEING FIELD   MOSUNNY   56  53  90 SE3       29.83R                  
RENTON         FOG       54  54 100 SE3       29.82S VSB 1/4          
SEATAC AIRPORT PTSUNNY   55  52  89 S3        29.82S                  
JBLM-MCCHORD   NOT AVBL                                               
PUYALLUP       PTSUNNY   54  54 100 CALM      29.83R                  
BREMERTON      CLOUDY    54  54 100 SW3       29.82S                  
JBLM-FT LEWIS  NOT AVBL                                               
TACOMA NARROWS PTSUNNY   53  53 100 S5        29.82S                  
$$
 
WAZ001-503-506-510-514-515-161700-
NORTH INTERIOR
  
CITY           SKY/WX    TMP DP  RH WIND       PRES   REMARKS
BELLINGHAM     PTSUNNY   57  52  83 CALM      29.81S                  
FRIDAY HARBOR  CLOUDY    55  53  93 CALM      29.82S                  
EASTSOUND      CLOUDY    55  55 100 CALM      29.81R                  
PORT ANGELES   CLOUDY    53  50  89 CALM      29.82R                  
EDIZ HOOK      CLOUDY    51  51  99 SW3       29.82S                  
PORT TOWNSEND  PTSUNNY   52  52 100 CALM      29.81S                  
NAS WHIDBEY    CLOUDY    59  52  77 S6        29.86R                  
ARLINGTON      CLOUDY    58  53  84 S5        29.82S                  
BURLINGTON     CLOUDY    57  57 100 NE3       29.82S                  
$$
 
WAZ020-022-039-040-504-511-512-161700-
SOUTHWEST INTERIOR
  
CITY           SKY/WX    TMP DP  RH WIND       PRES   REMARKS
SHELTON        FOG       53  51  93 CALM      29.80S VSB 1/4          
OLYMPIA        PTSUNNY   55  53  93 W6        29.82S                  
CHEHALIS       PTSUNNY   57  55  94 CALM      29.83R                  
KELSO          CLOUDY    57  55  93 SE6       29.84R                  
VANCOUVER      CLOUDY    58  53  84 S5        29.84R                  
SCAPPOOSE, OR  CLOUDY    55  54  96 CALM      29.83R                  
PORTLAND, OR   CLOUDY    59  54  83 S7        29.84R                  
$$
 
WAZ021-516-517-161700-
WASHINGTON COAST
  
CITY           SKY/WX    TMP DP  RH WIND       PRES   REMARKS
FORKS          MOSUNNY   55  53  93 E5        29.80R                  
HOQUIAM        CLOUDY    55  55 100 E7        29.82R                  
ASTORIA, OR    MOSUNNY   57  53  86 E5        29.81R                  
$$
 
WAZ019-023-024-040-567>569-161700-
CASCADE MOUNTAINS AND COLUMBIA GORGE
  
CITY           SKY/WX    TMP DP  RH WIND       PRES   REMARKS
STAMPEDE PASS  FOG       44  42  93 W3        29.83S VSB 1/2          
TROUTDALE, OR  CLOUDY    60  53  77 SW5       29.84R                  
HOOD RIVER, OR CLOUDY    54  52  94 CALM      29.83S                  
THE DALLES, OR CLOUDY    59  52  77 W10       29.81R                  
$$

WAZ026-027-041>044-520-521-161700-
EAST SLOPES
  
CITY           SKY/WX    TMP DP  RH WIND       PRES   REMARKS
OMAK           MOSUNNY   57  51  80 N3        29.78S                  
WENATCHEE      CLOUDY    53  47  79 SW7       29.77S                  
ELLENSBURG     PTSUNNY   56  47  71 NW6       29.78S                  
YAKIMA         PTSUNNY   53  47  79 CALM      29.79S                  
SUNNYSIDE ARPT CLOUDY    55  52  92 CALM      29.80R                  
YAKIMA TC      NOT AVBL                                               
$$

WAZ028-034-035-161700-
COLUMBIA BASIN
  
CITY           SKY/WX    TMP DP  RH WIND       PRES   REMARKS
EPHRATA        CLOUDY    55  50  83 NE5       29.77S                  
MOSES LAKE     CLOUDY    57  51  80 S3        29.77S                  
PASCO          LGT RAIN  58  58 100 SE6       29.81R                  
RICHLAND ARPT  LGT RAIN  59  56  91 SE5       29.80R                  
HERMISTON, OR  LGT RAIN  57  54  89 SE7       29.80S                  
$$

WAZ036>038-161700-
NORTHEAST WASHINGTON
  
CITY           SKY/WX    TMP DP  RH WIND       PRES   REMARKS
SPOKANE GEIGER CLOUDY    54  44  69 W3        29.79R                  
SPOKANE FELTS  CLOUDY    57  46  66 NW3       29.80R                  
FAIRCHILD AFB  NOT AVBL                                               
COEURDALENE,ID CLOUDY    57  45  64 SW5       29.80R                  
DEER PARK      CLOUDY    56  46  69 CALM      29.80S                  
$$

WAZ029>033-161700-
SOUTHEAST WASHINGTON
  
CITY           SKY/WX    TMP DP  RH WIND       PRES   REMARKS
PULLMAN        CLOUDY    56  45  66 NW6       29.82S                  
LEWISTON, ID   CLOUDY    62  44  51 W3        29.79R                  
WALLA WALLA    RAIN      55  52  89 SW8       29.83R                  
PENDLETON, OR  LGT RAIN  52  51  97 SE7       29.82S FOG              
$$